Wind_Speed
4 6 6 6 6 7 7 7 7 6 6 6 6 5 4 2 2 2 2 2 1 1 0 1 1 2 3 5 7 7 4 5 8 7 8 8 9 12 13 16 16 15 13 15 17
4 5 6 6 7 7 8 7 7 7 7 6 6 5 3 2 2 4 4 4 4 4 2 3 2 2 4 5 5 7 7 5 6 7 8 7 9 12 14 16 14 12 12 12 15
4 5 5 7 8 8 8 7 7 7 6 5 5 5 4 4 6 6 5 4 4 4 4 4 2 2 3 4 4 6 7 6 7 7 7 8 10 12 14 13 14 16 16 18 24
5 5 6 8 9 8 8 7 7 7 5 4 3 4 3 4 3 5 4 3 3 2 3 4 3 1 1 1 1 2 4 4 4 5 7 9 10 14 13 13 15 17 14 20 28
6 7 9 10 9 9 8 7 7 7 6 5 6 7 7 8 5 4 2 3 3 4 4 3 4 3 1 2 2 1 2 2 3 7 7 10 14 16 15 14 16 14 15 26 35
7 8 9 10 10 9 8 8 9 9 9 9 7 5 5 4 4 4 3 4 6 5 4 3 3 3 4 2 2 1 3 3 5 7 10 13 14 13 12 13 14 15 20 28 37
7 8 10 10 11 10 9 10 11 11 9 7 7 6 6 4 4 3 4 5 5 6 6 4 3 3 5 3 1 2 5 5 7 9 12 11 14 14 12 14 15 17 21 31 41
8 9 10 10 11 11 10 11 11 10 7 7 7 6 4 4 4 4 5 5 5 5 6 6 5 6 5 3 2 4 4 7 9 10 12 16 15 10 13 15 16 18 20 29 44
9 9 11 11 11 11 10 9 9 9 8 6 5 3 4 5 8 6 5 7 7 5 6 5 4 4 0 1 4 7 7 8 9 11 13 12 13 12 14 14 17 20 27 33 41
10 10 12 12 12 11 10 9 9 9 7 6 3 4 4 6 6 5 5 6 5 5 5 5 2 8 5 3 5 9 10 7 9 12 10 11 13 12 12 14 20 25 31 36 45
12 12 12 12 12 11 10 8 6 6 6 8 9 7 6 7 5 6 4 4 5 4 1 4 2 7 11 12 13 10 7 5 14 9 10 9 9 11 12 17 24 28 35 39 46
13 13 13 13 14 13 11 11 8 9 9 9 8 8 8 6 7 5 5 6 7 5 4 5 10 11 14 13 12 6 8 9 10 8 11 8 8 9 12 16 24 32 37 47 46
14 13 13 13 14 14 10 11 11 10 10 11 9 5 6 9 6 8 7 5 8 6 4 8 9 12 12 9 7 8 12 18 14 12 10 11 10 12 10 16 22 29 44 42 43
15 14 14 14 15 14 14 12 12 7 5 4 4 6 3 2 9 10 11 9 9 8 5 6 11 11 12 13 16 12 20 10 6 6 4 8 5 10 13 17 28 36 47 42 45
16 15 15 15 15 16 14 10 9 6 2 2 6 5 8 5 5 11 13 9 6 8 6 6 10 8 15 14 22 21 13 5 3 6 5 9 8 7 16 30 38 45 45 41 45
17 17 16 17 18 18 12 8 7 4 2 3 5 6 7 6 7 12 16 10 7 6 7 5 10 12 17 10 22 21 7 3 2 3 4 5 3 7 21 36 40 46 41 44 45
19 18 18 17 20 17 11 6 5 4 9 8 7 8 6 5 5 7 13 12 10 1 5 4 9 8 15 15 10 20 11 3 2 1 5 5 7 5 15 27 40 40 42 44 42
20 19 19 19 22 18 12 8 5 7 10 11 10 7 5 2 4 4 11 14 15 11 3 7 4 12 14 21 13 24 18 5 4 3 8 13 4 3 16 24 40 32 38 41 41
21 20 20 20 22 20 14 9 4 11 13 15 11 7 5 2 3 3 3 15 13 12 6 5 3 9 9 15 17 12 12 9 4 8 5 4 5 9 12 35 35 36 41 43 42
21 20 20 21 22 20 17 11 8 12 14 15 8 7 5 3 2 3 8 9 10 10 10 5 1 7 7 10 11 14 16 5 5 3 5 6 6 8 33 45 36 37 41 44 40
22 21 21 21 22 21 20 12 12 14 16 14 9 8 7 4 1 4 7 5 10 9 9 8 5 6 3 6 9 11 14 9 5 3 3 3 3 16 36 36 35 35 40 42 38
24 22 22 23 22 22 20 13 14 17 16 11 11 9 8 5 1 2 4 7 9 10 9 9 5 4 3 4 8 9 12 14 4 4 5 4 8 19 36 29 28 32 39 41 35
25 24 24 25 23 21 18 14 15 18 15 12 11 10 8 7 3 3 5 6 7 8 8 7 8 4 4 5 5 7 10 12 10 9 4 1 10 29 28 23 24 31 37 38 33
26 24 24 27 24 20 18 16 17 17 15 13 11 11 9 6 4 2 4 4 5 7 8 7 7 4 2 5 5 6 9 12 12 6 14 12 25 27 27 26 26 30 36 37 30
27 24 25 27 27 20 19 14 18 18 16 15 12 12 10 6 5 3 4 4 4 6 7 9 6 7 3 6 5 5 9 12 15 16 10 22 25 26 24 26 27 32 35 33 29
27 24 23 20 27 22 20 17 17 17 15 16 12 12 11 8 6 4 5 4 3 6 8 9 9 9 3 7 6 7 10 13 16 18 21 18 26 24 19 19 22 28 33 35 29
27 24 20 25 21 25 21 19 18 17 15 15 13 13 12 9 6 5 5 5 4 6 8 10 10 9 3 8 7 7 8 13 18 21 19 20 26 26 18 19 23 29 33 34 29
Wind_Direction
144 157 163 161 152 146 141 140 139 131 123 122 116 105 95 61 358 331 23 34 50 91 277 20 349 266 241 239 223 211 226 218 236 242 282 270 283 303 309 314 313 316 320 323 328
142 155 167 173 162 154 150 152 149 140 135 130 118 103 86 41 31 51 50 62 64 61 41 18 8 267 234 215 216 217 239 241 265 274 277 274 300 309 315 317 329 334 333 333 324
132 135 152 165 164 160 155 158 152 142 141 133 117 118 113 93 80 79 83 80 71 74 60 25 357 231 204 211 217 234 239 233 243 262 276 295 302 308 310 312 317 331 341 338 336
119 132 140 147 151 152 154 157 153 146 136 114 106 105 84 130 92 80 70 61 44 16 19 343 326 305 198 234 253 206 218 228 248 266 280 290 298 306 320 327 335 345 335 331 336
119 129 133 139 142 147 150 155 147 129 116 100 102 106 93 85 88 69 12 5 12 18 18 354 340 325 291 240 250 295 249 249 280 286 298 301 308 319 323 328 339 331 320 338 343
125 130 132 138 142 142 143 143 136 130 120 110 103 102 98 85 66 45 22 16 23 14 353 335 336 323 305 288 315 172 236 269 288 292 295 307 307 317 315 325 330 322 330 339 342
132 135 138 143 143 139 132 132 134 127 110 95 104 93 73 83 65 52 41 27 6 3 350 337 347 333 324 257 226 300 296 281 300 288 297 314 304 325 317 320 316 322 338 349 348
142 144 146 148 142 134 129 125 127 128 116 111 102 86 69 64 63 51 18 7 3 7 358 354 352 344 308 235 244 295 277 295 301 300 300 307 302 307 296 299 311 319 324 336 345
151 155 150 150 146 142 137 126 124 129 126 127 123 90 59 59 49 40 35 24 17 352 347 0 7 340 45 18 302 295 304 286 290 295 283 284 291 270 281 303 307 314 324 332 333
158 159 152 153 149 149 141 134 137 140 134 121 133 97 66 56 56 54 49 24 355 335 342 10 338 64 90 5 316 296 278 265 287 298 278 282 266 252 275 293 307 320 326 331 331
165 163 156 154 152 150 145 141 150 151 145 120 102 93 78 72 55 41 23 21 359 345 353 17 6 29 15 357 340 318 289 249 317 276 289 288 266 265 283 296 307 326 329 328 336
173 173 169 163 157 155 150 146 138 127 128 114 108 86 80 81 51 42 38 28 15 359 10 18 21 25 9 358 339 331 305 288 315 253 282 258 270 267 284 312 326 332 336 340 339
178 176 175 172 165 164 160 149 138 134 118 96 91 112 90 68 59 51 35 12 12 10 43 24 44 20 6 4 3 348 328 306 295 266 260 260 244 245 282 312 319 335 344 341 341
181 179 179 173 172 167 158 157 156 144 114 92 106 59 110 153 53 44 29 13 12 22 31 33 34 14 17 13 9 351 335 322 296 239 259 237 287 250 300 310 338 349 340 343 343
184 182 183 178 173 167 163 170 179 175 95 140 97 96 81 93 76 42 18 9 353 36 37 49 27 14 20 18 16 356 345 325 301 215 269 237 276 342 332 339 349 347 342 345 345
187 183 181 178 174 167 170 168 173 183 174 149 137 112 91 87 79 43 27 25 22 35 34 51 23 27 22 15 23 2 350 356 35 219 267 211 299 338 357 353 346 340 342 348 345
188 184 182 185 177 175 174 178 175 214 168 161 143 139 124 101 79 64 35 37 41 353 19 21 24 21 22 25 21 20 35 340 323 327 244 289 322 275 335 343 344 342 347 346 345
190 186 185 185 182 182 183 190 219 187 170 167 157 153 168 120 53 26 22 28 31 30 31 21 30 19 17 21 16 20 30 55 268 298 299 298 258 292 321 332 336 347 344 348 350
193 190 189 188 189 192 200 211 233 188 178 166 160 160 156 117 27 360 333 22 22 22 25 13 40 18 24 22 25 13 15 3 310 289 303 293 299 310 314 330 348 354 349 352 352
196 192 193 194 195 200 207 216 212 185 176 174 177 183 171 157 22 4 12 6 11 12 20 14 21 8 20 25 29 30 20 4 353 19 307 301 317 317 339 343 350 349 350 352 353
197 195 193 195 197 201 207 218 207 190 182 185 200 188 176 160 60 15 10 359 7 4 7 10 12 1 12 23 24 24 30 16 359 11 192 312 321 348 340 341 343 345 350 353 352
198 197 193 193 194 202 205 216 200 189 188 197 195 189 189 187 127 356 2 10 6 4 3 1 352 0 13 7 6 8 7 14 4 321 258 252 291 341 337 338 338 345 350 352 354
197 200 197 195 200 203 205 209 201 191 194 198 194 196 200 201 212 332 348 356 4 2 3 360 356 339 333 326 332 346 345 346 350 341 238 266 314 332 332 341 346 348 352 352 356
197 200 202 201 204 203 206 207 199 196 199 197 202 203 198 198 205 274 329 339 353 356 358 355 351 350 291 302 300 322 331 332 334 331 315 292 319 337 340 347 350 350 351 354 357
198 202 205 209 205 204 201 206 204 199 202 202 206 206 201 207 210 266 311 320 328 346 348 352 334 341 307 328 290 294 333 332 327 327 320 326 330 342 341 346 345 348 349 356 0
199 202 206 211 206 207 203 205 207 207 208 206 208 208 208 216 227 265 295 299 321 336 346 344 329 335 289 332 287 268 322 332 331 329 327 328 340 347 343 342 341 348 350 359 2
202 206 208 210 207 206 206 206 203 203 211 209 208 207 212 217 227 258 288 286 280 324 341 344 341 330 276 324 297 291 334 332 334 330 326 334 344 349 353 347 350 347 355 360 0
Height
3174 3175 3175 3176 3176 3177 3177 3177 3178 3178 3179 3179 3179 3180 3180 3179 3179 3178 3177 3177 3176 3176 3175 3175 3174 3174 3173 3173 3173 3173 3173 3172 3172 3172 3172 3171 3169 3166 3164 3163 3162 3160 3156 3153 3150
3175 3174 3175 3176 3177 3177 3178 3178 3179 3179 3180 3180 3181 3181 3181 3180 3180 3179 3179 3178 3177 3177 3176 3176 3175 3175 3174 3173 3173 3173 3172 3172 3172 3171 3169 3168 3167 3165 3164 3160 3158 3155 3153 3151 3148
3175 3175 3175 3176 3177 3178 3178 3179 3180 3180 3181 3181 3182 3182 3182 3182 3182 3181 3180 3179 3178 3177 3176 3176 3176 3175 3174 3173 3172 3172 3171 3170 3169 3168 3168 3167 3165 3164 3162 3160 3157 3154 3151 3147 3143
3175 3175 3176 3177 3177 3178 3179 3180 3180 3181 3182 3182 3182 3182 3182 3182 3184 3181 3181 3180 3179 3178 3177 3176 3176 3175 3174 3173 3172 3171 3170 3169 3168 3168 3166 3165 3164 3163 3160 3157 3152 3152 3148 3145 3140
3176 3176 3176 3177 3178 3179 3180 3181 3181 3182 3182 3183 3183 3183 3183 3183 3184 3182 3181 3180 3179 3178 3178 3177 3176 3175 3174 3173 3171 3170 3169 3168 3167 3165 3165 3164 3163 3160 3157 3152 3152 3149 3146 3141 3136
3176 3177 3178 3178 3178 3179 3181 3181 3182 3183 3184 3184 3184 3184 3184 3185 3184 3183 3181 3180 3179 3179 3178 3177 3176 3175 3173 3172 3172 3170 3169 3167 3166 3165 3164 3163 3161 3159 3155 3152 3150 3147 3144 3140 3134
3178 3179 3179 3179 3179 3180 3181 3182 3183 3184 3186 3186 3186 3186 3185 3187 3184 3183 3182 3181 3180 3179 3178 3177 3175 3175 3174 3172 3171 3170 3169 3167 3166 3165 3163 3161 3159 3156 3152 3150 3148 3145 3141 3137 3129
3178 3180 3180 3181 3181 3182 3183 3184 3185 3186 3187 3187 3187 3187 3187 3186 3185 3184 3183 3182 3181 3179 3178 3176 3175 3174 3173 3172 3171 3170 3169 3167 3165 3163 3160 3160 3156 3153 3150 3149 3145 3141 3137 3132 3126
3178 3180 3181 3182 3183 3184 3185 3186 3187 3187 3188 3188 3188 3188 3188 3187 3186 3185 3184 3182 3181 3179 3178 3177 3176 3174 3172 3171 3171 3169 3168 3166 3164 3162 3159 3158 3156 3151 3148 3145 3142 3138 3133 3129 3123
3178 3180 3182 3183 3184 3185 3186 3187 3189 3189 3189 3188 3188 3190 3189 3188 3186 3185 3184 3183 3181 3180 3179 3178 3175 3173 3173 3172 3171 3168 3165 3163 3162 3160 3157 3155 3153 3148 3146 3143 3139 3135 3131 3125 3120
3178 3181 3182 3183 3184 3186 3187 3189 3192 3191 3189 3189 3189 3188 3188 3188 3187 3186 3184 3183 3181 3180 3179 3177 3177 3173 3172 3170 3167 3164 3163 3161 3159 3157 3155 3152 3149 3147 3145 3142 3138 3134 3128 3123 3115
3177 3180 3182 3184 3185 3186 3188 3189 3190 3192 3191 3190 3189 3189 3189 3189 3188 3186 3185 3184 3182 3180 3178 3178 3174 3174 3171 3169 3166 3163 3162 3160 3158 3155 3154 3151 3148 3145 3144 3141 3137 3130 3126 3117 3108
3177 3179 3182 3184 3185 3187 3188 3189 3190 3191 3191 3191 3190 3190 3190 3190 3188 3187 3186 3183 3181 3179 3177 3176 3176 3174 3172 3170 3166 3163 3161 3157 3155 3152 3152 3150 3147 3143 3144 3141 3138 3134 3125 3116 3107
3176 3179 3181 3183 3187 3187 3188 3190 3191 3191 3192 3194 3192 3191 3191 3190 3189 3187 3185 3184 3181 3179 3177 3177 3176 3175 3172 3168 3165 3161 3157 3153 3151 3151 3152 3150 3146 3143 3142 3138 3133 3125 3120 3112 3102
3175 3178 3180 3183 3185 3187 3189 3189 3191 3192 3192 3195 3192 3192 3190 3191 3190 3188 3185 3182 3181 3179 3179 3178 3176 3174 3171 3168 3163 3161 3154 3153 3151 3151 3151 3149 3148 3142 3138 3132 3128 3123 3116 3109 3100
3174 3176 3179 3182 3184 3187 3188 3189 3190 3193 3191 3192 3191 3191 3191 3190 3190 3188 3186 3183 3181 3179 3177 3177 3176 3174 3171 3168 3164 3160 3155 3153 3152 3152 3150 3146 3148 3142 3136 3132 3126 3124 3115 3106 3097
3172 3175 3178 3181 3184 3186 3187 3189 3191 3189 3191 3192 3191 3191 3191 3191 3190 3189 3187 3184 3182 3180 3178 3177 3176 3174 3172 3169 3166 3163 3156 3154 3154 3152 3148 3146 3145 3140 3139 3135 3130 3121 3113 3106 3097
3170 3173 3176 3179 3182 3185 3187 3189 3188 3186 3187 3189 3190 3191 3191 3191 3190 3189 3187 3184 3182 3180 3178 3177 3174 3175 3173 3169 3167 3163 3160 3161 3161 3158 3149 3145 3143 3143 3139 3136 3132 3124 3114 3104 3095
3168 3171 3174 3178 3181 3183 3187 3186 3185 3185 3187 3188 3190 3191 3191 3191 3190 3188 3187 3185 3183 3180 3180 3177 3177 3176 3174 3171 3170 3167 3165 3164 3161 3158 3154 3145 3144 3141 3139 3136 3126 3119 3111 3102 3093
3166 3169 3172 3176 3179 3182 3184 3184 3183 3184 3185 3187 3188 3189 3189 3190 3190 3187 3186 3186 3183 3181 3179 3178 3177 3176 3174 3173 3172 3170 3168 3164 3162 3164 3158 3143 3142 3140 3133 3125 3120 3115 3108 3101 3093
3165 3167 3169 3173 3177 3180 3180 3182 3182 3183 3185 3187 3187 3188 3189 3189 3189 3188 3187 3186 3183 3181 3179 3177 3178 3178 3175 3173 3171 3170 3167 3166 3164 3163 3162 3158 3144 3140 3134 3128 3121 3116 3109 3100 3092
3161 3165 3167 3170 3175 3176 3178 3179 3180 3182 3183 3185 3186 3187 3188 3189 3189 3188 3187 3185 3183 3181 3180 3178 3176 3175 3175 3173 3171 3169 3167 3165 3163 3162 3159 3158 3147 3141 3134 3128 3123 3116 3110 3101 3093
3158 3162 3164 3167 3170 3173 3176 3177 3179 3180 3182 3184 3185 3186 3187 3188 3189 3187 3186 3185 3183 3182 3180 3178 3176 3175 3173 3175 3172 3169 3167 3164 3162 3159 3156 3158 3148 3142 3135 3130 3123 3115 3108 3100 3092
3156 3159 3162 3164 3167 3170 3173 3176 3177 3179 3181 3182 3184 3185 3186 3187 3187 3187 3185 3184 3183 3181 3179 3178 3176 3175 3175 3173 3171 3168 3166 3163 3160 3158 3155 3151 3144 3138 3133 3125 3120 3115 3107 3100 3092
3152 3154 3157 3160 3164 3167 3170 3173 3175 3177 3180 3181 3183 3184 3185 3186 3186 3185 3184 3183 3183 3181 3179 3177 3175 3174 3172 3170 3168 3166 3164 3162 3159 3156 3153 3148 3141 3136 3130 3124 3118 3113 3108 3100 3092
3148 3152 3155 3158 3162 3165 3167 3170 3173 3176 3178 3180 3181 3183 3184 3184 3185 3184 3183 3182 3182 3180 3178 3176 3174 3172 3170 3169 3166 3164 3163 3161 3157 3153 3149 3144 3140 3134 3129 3125 3120 3114 3106 3098 3091
3145 3149 3152 3155 3158 3162 3164 3168 3170 3174 3176 3178 3180 3181 3182 3183 3183 3183 3182 3181 3180 3179 3177 3176 3173 3170 3168 3167 3164 3164 3162 3159 3155 3151 3147 3143 3138 3132 3128 3122 3117 3111 3105 3097 3091